ASA532 KLAX-KSEA

Flight info

Callsign ASA532
Flight time N/A
Altitude 38000
Route LADYJ4 CSTRO SHIMR LKV HAWKZ8
Aircraft B738/M-SDE2E3FGHIRWXY/LB1

Departure

Time 2026-04-22 15:44
Airport Los Angeles International Airport (KLAX)

Arrival

Time N/A
Airport Seattle–Tacoma International Airport (KSEA)
Time Latitude Longitude Altitude Speed Heading
2026-04-22 15:11 33.94172 -118.40269 125 ft 0 kts 82°
2026-04-22 15:33 33.94170 -118.40279 125 ft 2 kts 82°
2026-04-22 15:33 33.94169 -118.40297 125 ft 2 kts 102°
2026-04-22 15:33 33.94175 -118.40314 125 ft 2 kts 124°
2026-04-22 15:33 33.94186 -118.40327 125 ft 2 kts 148°
2026-04-22 15:34 33.94199 -118.40334 125 ft 1 kts 170°
2026-04-22 15:34 33.94205 -118.40334 125 ft 1 kts 175°
2026-04-22 15:34 33.94207 -118.40334 125 ft 0 kts 174°
2026-04-22 15:37 33.94204 -118.40334 125 ft 0 kts 174°
2026-04-22 15:37 33.94184 -118.40331 125 ft 4 kts 174°
2026-04-22 15:37 33.94146 -118.40326 126 ft 6 kts 172°
2026-04-22 15:37 33.94099 -118.40318 126 ft 6 kts 172°
2026-04-22 15:38 33.94048 -118.40310 126 ft 8 kts 173°
2026-04-22 15:38 33.94036 -118.40308 126 ft 0 kts 173°
2026-04-22 15:38 33.94017 -118.40305 126 ft 8 kts 173°
2026-04-22 15:39 33.93967 -118.40299 126 ft 5 kts 174°
2026-04-22 15:39 33.93917 -118.40292 125 ft 7 kts 174°
2026-04-22 15:39 33.93869 -118.40274 125 ft 7 kts 135°
2026-04-22 15:39 33.93860 -118.40197 124 ft 12 kts 86°
2026-04-22 15:40 33.93871 -118.40080 122 ft 14 kts 84°
2026-04-22 15:40 33.93883 -118.39960 120 ft 14 kts 84°
2026-04-22 15:40 33.93897 -118.39830 118 ft 16 kts 84°
2026-04-22 15:40 33.93912 -118.39671 116 ft 20 kts 82°
2026-04-22 15:41 33.93929 -118.39498 113 ft 21 kts 85°
2026-04-22 15:41 33.93947 -118.39322 110 ft 21 kts 83°
2026-04-22 15:41 33.93966 -118.39146 109 ft 20 kts 85°
2026-04-22 15:41 33.93982 -118.38977 108 ft 20 kts 82°
2026-04-22 15:42 33.94000 -118.38810 107 ft 19 kts 84°
2026-04-22 15:42 33.94016 -118.38646 106 ft 19 kts 84°
2026-04-22 15:42 33.94033 -118.38490 105 ft 18 kts 83°
2026-04-22 15:42 33.94049 -118.38334 104 ft 18 kts 83°
2026-04-22 15:43 33.94064 -118.38184 104 ft 17 kts 85°
2026-04-22 15:43 33.94078 -118.38058 103 ft 14 kts 94°
2026-04-22 15:43 33.94006 -118.38007 103 ft 13 kts 203°
2026-04-22 15:43 33.93975 -118.38107 103 ft 14 kts 262°
2026-04-22 15:44 33.93927 -118.38547 106 ft 97 kts 263°
2026-04-22 15:44 33.93811 -118.39668 166 ft 165 kts 263°
2026-04-22 15:44 33.93651 -118.40982 1035 ft 171 kts 263°
2026-04-22 15:44 33.93501 -118.42470 1810 ft 188 kts 265°
2026-04-22 15:45 33.93359 -118.44045 2516 ft 198 kts 265°
2026-04-22 15:45 33.93191 -118.45784 2985 ft 220 kts 264°
2026-04-22 15:45 33.93016 -118.47728 3483 ft 242 kts 265°
2026-04-22 15:45 33.92855 -118.49704 4551 ft 241 kts 266°
2026-04-22 15:46 33.92690 -118.51762 5292 ft 255 kts 266°
2026-04-22 15:46 33.92518 -118.53870 6225 ft 260 kts 266°
2026-04-22 15:46 33.92341 -118.56020 7278 ft 259 kts 266°
2026-04-22 15:46 33.92162 -118.58168 7918 ft 264 kts 266°
2026-04-22 15:47 33.92120 -118.60375 8012 ft 264 kts 277°
2026-04-22 15:47 33.92690 -118.62455 8011 ft 260 kts 301°
2026-04-22 15:47 33.93920 -118.64071 8011 ft 265 kts 320°
2026-04-22 15:47 33.95464 -118.65292 8008 ft 267 kts 327°
2026-04-22 15:48 33.97108 -118.66371 8104 ft 279 kts 329°
2026-04-22 15:48 33.98854 -118.67347 9199 ft 278 kts 336°
2026-04-22 15:48 34.00730 -118.67799 10237 ft 282 kts 352°
2026-04-22 15:48 34.02729 -118.67718 11042 ft 291 kts 359°
2026-04-22 15:49 34.04755 -118.67500 11855 ft 296 kts 359°
2026-04-22 15:49 34.06820 -118.67291 12654 ft 300 kts 358°
2026-04-22 15:49 34.08918 -118.66946 13424 ft 308 kts
2026-04-22 15:49 34.11021 -118.66470 14183 ft 313 kts
2026-04-22 15:50 34.13166 -118.65953 14909 ft 318 kts
2026-04-22 15:50 34.15335 -118.65426 15668 ft 322 kts
2026-04-22 15:50 34.17565 -118.64893 16166 ft 333 kts
2026-04-22 15:50 34.19916 -118.64342 16585 ft 348 kts
2026-04-22 15:51 34.22349 -118.63824 16975 ft 361 kts
2026-04-22 15:51 34.24866 -118.63575 17324 ft 369 kts 352°
2026-04-22 15:51 34.27438 -118.63814 17819 ft 372 kts 345°
2026-04-22 15:51 34.29992 -118.64328 18493 ft 374 kts 341°
2026-04-22 15:52 34.32562 -118.64956 19135 ft 377 kts 340°
2026-04-22 15:52 34.35115 -118.65601 19827 ft 380 kts 340°
2026-04-22 15:52 34.37741 -118.66249 20372 ft 386 kts 341°
2026-04-22 15:52 34.40412 -118.66889 20986 ft 390 kts 341°
2026-04-22 15:53 34.43047 -118.67503 21622 ft 393 kts 341°
2026-04-22 15:53 34.45779 -118.68100 22046 ft 402 kts 342°
2026-04-22 15:53 34.48579 -118.68659 22668 ft 405 kts 342°
2026-04-22 15:53 34.51339 -118.69186 23312 ft 406 kts 342°
2026-04-22 15:54 34.54149 -118.69719 23740 ft 413 kts 342°
2026-04-22 15:54 34.57006 -118.70263 24337 ft 415 kts 342°
2026-04-22 15:54 34.59836 -118.70804 24955 ft 416 kts 342°
2026-04-22 15:54 34.62725 -118.71361 25480 ft 419 kts 342°
2026-04-22 15:55 34.65601 -118.71919 26019 ft 422 kts 342°
2026-04-22 15:55 34.68513 -118.72548 26593 ft 421 kts 340°
2026-04-22 15:55 34.71376 -118.73405 27019 ft 419 kts 334°
2026-04-22 15:55 34.74039 -118.74643 27563 ft 413 kts 327°
2026-04-22 15:56 34.76631 -118.76187 28000 ft 414 kts 324°
2026-04-22 15:56 34.79154 -118.77875 28420 ft 415 kts 322°
2026-04-22 15:56 34.81657 -118.79620 28901 ft 417 kts 322°
2026-04-22 15:56 34.84175 -118.81393 29504 ft 416 kts 321°
2026-04-22 15:57 34.86682 -118.83157 29825 ft 422 kts 322°
2026-04-22 15:57 34.89255 -118.84957 30321 ft 423 kts 322°
2026-04-22 15:57 34.91824 -118.86747 30683 ft 427 kts 322°
2026-04-22 15:57 34.94456 -118.88574 31089 ft 430 kts 322°
2026-04-22 15:58 34.97060 -118.90376 31521 ft 431 kts 322°
2026-04-22 15:58 34.99680 -118.92183 32131 ft 428 kts 321°
2026-04-22 15:58 35.02247 -118.93950 32718 ft 426 kts 321°
2026-04-22 15:58 35.04804 -118.95711 33310 ft 422 kts 321°
2026-04-22 15:59 35.07362 -118.97472 33919 ft 419 kts 321°
2026-04-22 15:59 35.09883 -118.99218 34285 ft 420 kts 321°
2026-04-22 15:59 35.12434 -119.00983 34866 ft 417 kts 320°
2026-04-22 15:59 35.14943 -119.02715 35616 ft 410 kts 320°
2026-04-22 16:00 35.17428 -119.04429 36238 ft 405 kts 320°
2026-04-22 16:00 35.19836 -119.06097 36676 ft 403 kts 320°
2026-04-22 16:00 35.22276 -119.07793 37098 ft 402 kts 320°
2026-04-22 16:00 35.24699 -119.09480 37574 ft 399 kts 320°
2026-04-22 16:01 35.27095 -119.11147 38041 ft 396 kts 320°
2026-04-22 16:01 35.29492 -119.12820 38206 ft 398 kts 319°
2026-04-22 16:01 35.34298 -119.16179 38201 ft 399 kts 319°
2026-04-22 16:02 35.39085 -119.19516 38204 ft 396 kts 319°
2026-04-22 16:02 35.43973 -119.22718 38200 ft 403 kts 324°
2026-04-22 16:03 35.49386 -119.25023 38203 ft 416 kts 333°
2026-04-22 16:03 35.52185 -119.25905 38092 ft 416 kts 334°
2026-04-22 16:03 35.55013 -119.26728 38203 ft 419 kts 334°
2026-04-22 16:04 35.60713 -119.28365 38201 ft 420 kts 335°
2026-04-22 16:04 35.66417 -119.30024 38205 ft 422 kts 334°
2026-04-22 16:05 35.72113 -119.31705 38204 ft 419 kts 334°
2026-04-22 16:05 35.77775 -119.33395 38202 ft 418 kts 334°
2026-04-22 16:06 35.83409 -119.35088 38205 ft 419 kts 334°
2026-04-22 16:06 35.89049 -119.36787 38202 ft 419 kts 334°
2026-04-22 16:07 35.94690 -119.38483 38197 ft 416 kts 334°
2026-04-22 16:07 36.00372 -119.40205 38192 ft 420 kts 334°
2026-04-22 16:08 36.06016 -119.41912 38193 ft 420 kts 334°
2026-04-22 16:08 36.11669 -119.43619 38194 ft 416 kts 334°
2026-04-22 16:09 36.17321 -119.45338 38196 ft 420 kts 334°
2026-04-22 16:09 36.22974 -119.47060 38197 ft 416 kts 334°
2026-04-22 16:10 36.28626 -119.48774 38200 ft 418 kts 334°
2026-04-22 16:10 36.34246 -119.50489 38198 ft 420 kts 334°
2026-04-22 16:11 36.39953 -119.52233 38198 ft 419 kts 334°
2026-04-22 16:11 36.45601 -119.53953 38196 ft 418 kts 334°
2026-04-22 16:12 36.51236 -119.55679 38196 ft 419 kts 334°
2026-04-22 16:12 36.56878 -119.57410 38173 ft 419 kts 334°
2026-04-22 16:13 36.62561 -119.59158 38196 ft 420 kts 334°
2026-04-22 16:13 36.68238 -119.60901 38191 ft 420 kts 334°
2026-04-22 16:14 36.73898 -119.62646 38197 ft 421 kts 334°
2026-04-22 16:14 36.79575 -119.64397 38191 ft 418 kts 334°
2026-04-22 16:15 36.85248 -119.66148 38207 ft 420 kts 333°
2026-04-22 16:15 36.90940 -119.67911 38189 ft 420 kts 334°
2026-04-22 16:16 36.96612 -119.69667 38191 ft 419 kts 334°
2026-04-22 16:16 37.02267 -119.71426 38211 ft 422 kts 334°
2026-04-22 16:17 37.07923 -119.73179 38198 ft 418 kts 334°
2026-04-22 16:17 37.13608 -119.74952 38206 ft 424 kts 334°
2026-04-22 16:18 37.19360 -119.76752 38194 ft 424 kts 334°
2026-04-22 16:18 37.25056 -119.78521 38190 ft 421 kts 334°
2026-04-22 16:19 37.30777 -119.80315 38175 ft 425 kts 334°
2026-04-22 16:19 37.36504 -119.82108 38169 ft 426 kts 334°
2026-04-22 16:20 37.42258 -119.83917 38201 ft 428 kts 335°
2026-04-22 16:20 37.48017 -119.85721 38182 ft 426 kts 335°
2026-04-22 16:21 37.53792 -119.87537 38170 ft 426 kts 335°
2026-04-22 16:21 37.59545 -119.89350 38172 ft 425 kts 335°
2026-04-22 16:22 37.68227 -119.92098 38146 ft 431 kts 336°
2026-04-22 16:23 37.76935 -119.94852 38179 ft 430 kts 336°
2026-04-22 16:23 37.82749 -119.96697 38182 ft 431 kts 336°
2026-04-22 16:24 37.91518 -119.99482 38162 ft 434 kts 336°
2026-04-22 16:25 37.97414 -120.01366 38162 ft 437 kts 336°
2026-04-22 16:25 38.06198 -120.04166 38161 ft 432 kts 337°
2026-04-22 16:26 38.12063 -120.06039 38175 ft 435 kts 337°
2026-04-22 16:26 38.17947 -120.07925 38170 ft 434 kts 337°
2026-04-22 16:27 38.23883 -120.09564 38148 ft 440 kts 343°
2026-04-22 16:27 38.30036 -120.10399 38145 ft 447 kts 347°
2026-04-22 16:28 38.36216 -120.10943 38133 ft 447 kts 348°
2026-04-22 16:28 38.42410 -120.11453 38118 ft 446 kts 348°
2026-04-22 16:29 38.48621 -120.11987 38105 ft 447 kts 348°
2026-04-22 16:29 38.54823 -120.12535 38096 ft 444 kts 348°
2026-04-22 16:30 38.61024 -120.13091 38100 ft 446 kts 348°
2026-04-22 16:30 38.67213 -120.13660 38096 ft 445 kts 348°
2026-04-22 16:31 38.73401 -120.14227 38091 ft 448 kts 348°
2026-04-22 16:31 38.79644 -120.14804 38104 ft 447 kts 348°
2026-04-22 16:32 38.85873 -120.15376 38116 ft 448 kts 348°
2026-04-22 16:32 38.92085 -120.15949 38115 ft 447 kts 348°
2026-04-22 16:33 38.98293 -120.16519 38114 ft 448 kts 348°
2026-04-22 16:33 39.04517 -120.17095 38109 ft 449 kts 348°
2026-04-22 16:34 39.10732 -120.17668 38110 ft 447 kts 348°
2026-04-22 16:34 39.16930 -120.18243 38111 ft 446 kts 349°
2026-04-22 16:35 39.23152 -120.18824 38126 ft 447 kts 349°
2026-04-22 16:35 39.29354 -120.19401 38129 ft 447 kts 349°
2026-04-22 16:36 39.35574 -120.19982 38137 ft 446 kts 349°
2026-04-22 16:36 39.41764 -120.20561 38124 ft 448 kts 349°
2026-04-22 16:37 39.47962 -120.21144 38134 ft 447 kts 349°